Location: Bednik
(45.3500°N, 16.3833°E)
Time: 16:57:32
(UTC+00:00)

Cosmos 1782 - Pass Details

Date: 08 August 2020
Orbit: 538 x 550 km, 82.5° (Epoch: 24 September)

Event Time Altitude Azimuth Distance (km) Brightness Sun altitude
Rises 18:50:01 0° 348° (NNW) 2,725 7.1 -6.8°
Reaches altitude 10° 18:52:11 10° 346° (NNW) 1,829 6.2 -7.1°
Maximum altitude 18:56:11 68° 264° (W) 594 3.2 -7.7°
Drops below altitude 10° 19:00:09 10° 181° (S) 1,819 5.2 -8.3°
Sets 19:02:19 0° 179° (S) 2,709 6.0 -8.6°
